This demonstration page uses our WeatherBlox Daily Observations layout. Learn more.

Left ArrowRight Arrow

39.92423, -83.80882

Hourly Observations for October 29, 2020

Temp ( °F °C ) Dew Point ( °F °C ) Humidity (%) Winds ( mph kmh ) Pressure ( in mb ) Visibility ( mi km ) Precip ( " mm )
12:56 am 00:56 Cloudy with Rain 49 9.4 49 9.4 100 100 E 5 7 29.9 1012 4 6.43736 0.01 0.254
1:17 am 01:17 Cloudy with Light Rain 48 9 48 9 100 100 ENE 6 9 29.89 1012 4 6.43736 0 0
1:32 am 01:32 Cloudy with Rain 48 9 48 9 100 100 E 7 11 29.87 1011 3 4.82802 0 0
1:45 am 01:45 Cloudy with Light Rain 48 9 48 9 100 100 E 6 9 29.88 1012 4 6.43736 0 0
1:56 am 01:56 Cloudy with Rain 49 9.4 49 9.4 100 100 E 6 9 29.86 1011 4 6.43736 0 0
2:56 am 02:56 Cloudy with Rain 49 9.4 49 9.4 100 100 E 7 11 29.84 1010 4 6.43736 0 0
3:56 am 03:56 Cloudy with Light Rain 49 9.4 49 9.4 100 100 ENE 7 11 29.81 1009 6 9.65604 0 0
4:56 am 04:56 Cloudy with Light Rain 49 9.4 49 9.4 100 100 ENE 9 15 29.77 1008 7 11.26538 0 0
5:56 am 05:56 Cloudy with Rain 49 9.4 49 9.4 100 100 NE 12 19 29.73 1007 7 11.26538 0 0
6:56 am 06:56 Cloudy with Rain 49 9.4 49 9.4 100 100 NE 15 24 29.73 1007 7 11.26538 0 0
7:56 am 07:56 Cloudy with Light Rain 47 8.3 47 8.3 100 100 NE 16 26 29.69 1006 9 14.48406 0 0
8:56 am 08:56 Cloudy with Rain 46 7.8 46 7.8 100 100 NE 16 26 29.71 1006 6 9.65604 0 0
9:56 am 09:56 Cloudy with Rain 46 7.8 46 7.8 100 100 NNE 14 22 29.69 1006 7 11.26538 0 0
10:56 am 10:56 Cloudy with Rain 45 7.2 45 7.2 100 100 NE 14 22 29.67 1005 9 14.48406 0 0
11:56 am 11:56 Cloudy with Light Rain 45 7.2 45 7.2 100 100 NNE 14 22 29.69 1006 10 16.0934 0 0
12:56 pm 12:56 Cloudy 46 7.8 46 7.8 100 100 NNE 12 19 29.7 1006 10 16.0934 0 0
1:56 pm 13:56 Cloudy with Light Rain 46 7.8 46 7.8 100 100 NNE 12 19 29.67 1005 8 12.87472 0 0
2:56 pm 14:56 Cloudy with Light Rain 47 8.3 47 8.3 100 100 NE 14 22 29.64 1004 6 9.65604 0 0
3:56 pm 15:56 Cloudy with Light Rain 47 8.3 47 8.3 100 100 N 15 24 29.68 1005 5 8.0467 0 0
4:56 pm 16:56 Cloudy with Light Rain 46 7.8 46 7.8 100 100 N 14 22 29.72 1006 5 8.0467 0 0
5:56 pm 17:56 Cloudy with Light Rain 46 7.8 46 7.8 100 100 NNE 13 20 29.72 1006 4 6.43736 0 0
6:48 pm 18:48 Cloudy 45 7 45 7 100 100 N 12 19 29.75 1008 9 14.48406 0 0
6:56 pm 18:56 Cloudy 45 7.2 45 7.2 100 100 N 10 17 29.75 1008 10 16.0934 0 0
7:40 pm 19:40 Cloudy with Light Rain 45 7 45 7 100 100 N 14 22 29.79 1009 10 16.0934 0 0
7:56 pm 19:56 Cloudy with Light Rain 44 6.7 44 6.7 100 100 N 10 17 29.79 1009 8 12.87472 0 0
8:16 pm 20:16 Cloudy with Light Rain 45 7 45 7 100 100 N 12 19 29.79 1009 8 12.87472 0 0
8:56 pm 20:56 Cloudy with Light Rain 44 6.7 44 6.7 100 100 N 12 19 29.79 1009 8 12.87472 0 0
9:29 pm 21:29 Cloudy with Light Rain 45 7 45 7 100 100 NNW 10 17 29.8 1009 7 11.26538 0 0
9:40 pm 21:40 Cloudy with Light Rain 45 7 45 7 100 100 NNW 9 15 29.82 1010 6 9.65604 0 0
9:51 pm 21:51 Cloudy with Light Rain 45 7 45 7 100 100 N 10 17 29.81 1010 7 11.26538 0 0
9:56 pm 21:56 Cloudy with Light Rain 44 6.7 44 6.7 100 100 N 13 20 29.81 1009 6 9.65604 0 0
10:19 pm 22:19 Cloudy 45 7 45 7 100 100 N 13 20 29.82 1010 8 12.87472 0 0
10:56 pm 22:56 Cloudy 45 7.2 45 7.2 100 100 N 13 20 29.84 1011 10 16.0934 0 0
11:05 pm 23:05 Cloudy 45 7 45 7 100 100 N 13 20 29.85 1011 10 16.0934 0 0
11:15 pm 23:15 Cloudy 45 7 45 7 100 100 N 13 20 29.86 1011 10 16.0934 0 0
11:56 pm 23:56 Cloudy 45 7.2 45 7.2 100 100 NNW 13 20 29.88 1012 10 16.0934 0 0

Powered by AerisWeather